FENGYUN 2G

Last updated on Sept. 24, 2020, 5:42 a.m. UTC

1 40367U 14090A   20267.84570130 -.00000321  00000-0  00000+0 0  9995
2 40367   2.3115  93.2656 0002133 302.3465  11.5609  1.00270596 21057
UTC
Height (km)
Latitude
Longitude
Inclination
Orbital Period
UTC large
Height (km)
Speed (km/s)
/
Latitude / Longitude
Inclination (degrees)
Orbital Period (minutes)
Azimuth
Elevation
Range (km)
Doppler Factor
iOS Compass Heading
iOS Angle

Next 30 passes for location: Hong Kong

Rise time Rise Azimuth (degrees) Set time Set Azimuth (degrees) Duration Max altitude (degrees)

No matching passes for this satellites